Regional Weather Roundup
Issued by NWS San Angelo, TX

Home | Current Version | Previous Version | Text Only | Print | Product List | Glossary On
Versions: 1 2 3 4 5 6 7 8 9 10 11 12 13 14 15 16 17 18 19 20 21 22 23 24 25 26 27 28 29 30 31 32 33 34 35 36 37 38 39 40 41 42 43 44 45 46 47 48 49 50
000
ASUS44 KSJT 251602
RWRSJT
WEST CENTRAL TEXAS REGIONAL WEATHER ROUNDUP
NATIONAL WEATHER SERVICE SAN ANGELO TX
1100 AM CDT MON MAY 25 2015

NOTE: "FAIR" INDICATES FEW OR NO CLOUDS BELOW 12,000 FEET WITH NO
SIGNIFICANT WEATHER AND/OR OBSTRUCTIONS TO VISIBILITY.

TXZ049-054-064>066-071>073-076>078-098-099-113-114-127-128-139-140-
154-155-168>170-251700
...LOCATIONS ACROSS WEST CENTRAL TEXAS...

CITY           SKY/WX    TMP DP  RH WIND       PRES   REMARKS
SAN ANGELO     CLOUDY    62  54  74 NW22G33   29.91R
ABILENE        TSTM      62  57  83 W31G39    29.94R
DYESS AFB      NOT AVBL
JUNCTION       CLOUDY    68  64  87 S12       29.89R
SWEETWATER     NOT AVBL
BROWNWOOD      NOT AVBL
COLEMAN        NOT AVBL
SONORA         NOT AVBL
OZONA          NOT AVBL
BRADY          NOT AVBL
$$

TEXAS PANHANDLE/OKLAHOMA PANHANDLE

CITY           SKY/WX    TMP DP  RH WIND       PRES   REMARKS
AMARILLO       CLOUDY    62  47  57 S17       29.90R
BORGER         CLOUDY    67  49  52 W5        29.85F
CANADIAN       CLOUDY    67  54  61 W3        29.84R
DALHART        CLOUDY    65  49  56 S9        29.90R
DUMAS          CLOUDY    65  49  56 SW7       29.88S
GUYMON         NOT AVBL
HEREFORD       NOT AVBL
PAMPA          NOT AVBL
PERRYTON       NOT AVBL
$$

SOUTHERN PANHANDLE/SOUTH PLAINS/ROLLING PLAINS

CITY           SKY/WX    TMP DP  RH WIND       PRES   REMARKS
LUBBOCK        RAIN      55  51  86 E24       29.95F
SNYDER         NOT AVBL
CHILDRESS      LGT RAIN  63  56  78 SW21      29.96R
SEMINOLE       NOT AVBL
$$

PERMIAN BASIN

CITY           SKY/WX    TMP DP  RH WIND       PRES   REMARKS
MIDLAND        SUNNY     67  53  61 NE14      29.93R
ODESSA         SUNNY     67  52  58 NE13      29.95R
WINK           SUNNY     74  50  42 E13       29.91R
$$

FAR WEST/SOUTHWEST MOUNTAINS/TRANS PECOS

CITY           SKY/WX    TMP DP  RH WIND       PRES   REMARKS
ALPINE         NOT AVBL
DRYDEN           N/A     83  61  47 S9        29.87R
EL PASO        SUNNY     71  33  24 SW14      29.99R
FORT STOCKTON  SUNNY     79  35  20 W16G23    29.93R
GUADALUPE PASS SUNNY     67  32  27 W23G33    30.02R
MARFA          SUNNY     70  28  21 W20G26    30.06R
PECOS          NOT AVBL
$$

DALLAS/FORT WORTH METROPLEX

CITY           SKY/WX    TMP DP  RH WIND       PRES   REMARKS
DFW AIRPORT    CLOUDY    73  70  90 S10       29.90F
FTW MEACHAM    PTSUNNY   79  71  76 SE12      29.88F
DAL-EXECUTIVE  CLOUDY    75  70  84 S9G20     29.91S
GRAND PRAIRIE  PTSUNNY   75  72  88 SE9G18    29.92S
ADDISON        NOT AVBL
MESQUITE       NOT AVBL
LANCASTER      CLOUDY    75  69  80 S12       29.93S
$$

NORTH CENTRAL TEXAS

CITY           SKY/WX    TMP DP  RH WIND       PRES   REMARKS
SHRMAN/DENISON CLOUDY    75  72  89 S10       29.94S
GAINESVILLE    CLOUDY    75  67  78 SE15      29.93R
BRIDGEPORT     PTSUNNY   78  70  77 S7G17     29.89F
DENTON         PTSUNNY   78  70  76 SE17      29.89F
WAXAHACHIE     CLOUDY    74  73  93 SE8       29.93S
GRANBURY       NOT AVBL
$$

WESTERN NORTH TEXAS

CITY           SKY/WX    TMP DP  RH WIND       PRES   REMARKS
WICHITA FALLS  CLOUDY    75  68  78 S14       29.87R
VERNON         NOT AVBL
BRECKENRIDGE   NOT AVBL
COMANCHE       CLOUDY    76  71  84 SE15      29.85F
$$

CENTRAL AND SOUTH CENTRAL TEXAS

CITY           SKY/WX    TMP DP  RH WIND       PRES   REMARKS
AUSTIN/BERGSTM CLOUDY    78  73  84 S12       29.91S
WACO           LGT RAIN  76  71  85 SE12      29.91S
HILLSBORO      NOT AVBL
TEMPLE         CLOUDY    75  68  78 SE16G22   29.90F
KILLEEN-GRAY   LGT RAIN  73  72  94 S14       29.91R
FORT HOOD      NOT AVBL
GEORGETOWN     CLOUDY    75  72  88 SE9       29.91S
LAGO VISTA     LGT RAIN  74  71  90 SE7       29.93S
SAN MARCOS     CLOUDY    79  72  78 SE16      29.91R
NEW BRAUNFELS  LGT RAIN  80  72  76 S17G25    29.89R
RANDOLPH AFB   PTSUNNY   77  72  83 SE18G24   29.89S
SAN ANTONIO    LGT RAIN  78  73  84 SE18      29.89F
STINSON        CLOUDY    79  73  82 SE15G21   29.86F
PLEASANTON     NOT AVBL
LA GRANGE      NOT AVBL
GIDDINGS       NOT AVBL
$$

EAST TEXAS

CITY           SKY/WX    TMP DP  RH WIND       PRES   REMARKS
PARIS          CLOUDY    72  64  78 S14       29.97R
CLARKSVILLE    NOT AVBL
TYLER          CLOUDY    77  69  76 S12       29.97S
LONGVIEW       PTSUNNY   80  70  71 SE10      29.97F
PALESTINE      CLOUDY    77  72  83 SE6       29.96F
NACOGDOCHES    CLOUDY    79  70  73 S12G17    29.98S
$$

TEXAS HILL COUNTRY AND EDWARDS PLATEAU

CITY           SKY/WX    TMP DP  RH WIND       PRES   REMARKS
LLANO          NOT AVBL
HORSESHOE BAY  TSTM      74  70  88 CALM      29.92F
KERRVILLE      DRIZZLE   72  70  94 SE14      29.90S
FREDERICKSBRG  NOT AVBL
ROCKSPRINGS    NOT AVBL
HONDO          LGT RAIN  75  73  93 SE7       29.90S
UVALDE         CLOUDY    74  73  96 SE8       29.88S FOG
DEL RIO        NOT AVBL
$$

SOUTHEAST TEXAS

CITY           SKY/WX    TMP DP  RH WIND       PRES   REMARKS
COLLEGE STN    CLOUDY    80  71  74 S21G26    29.93S
CALDWELL       NOT AVBL
CROCKETT       NOT AVBL
BRENHAM        NOT AVBL
HUNTSVILLE     PTSUNNY   81  72  74 S10G22    29.95F
CONROE         PTSUNNY   84  71  65 S15       29.96F
HOUSTON BUSH   PTSUNNY   84  73  69 S18G24    29.95F
HOUSTON HOBBY  MOSUNNY   85  74  69 SE17      29.96S
PERLAND        PTSUNNY   85  73  67 SE17      29.98S
WHARTON        NOT AVBL
$$

THE UPPER TEXAS COAST

CITY           SKY/WX    TMP DP  RH WIND       PRES   REMARKS
ORANGE         MOSUNNY   83  71  66 SE13      30.02F
PORT ARTHUR    PTSUNNY   85  75  72 SE17      29.99F
GALVESTON      PTSUNNY   82  78  88 SE15      29.99S
ANGLETON       CLOUDY    80  75  84 S16G28    29.96S
BAY CITY       NOT AVBL
$$

TEXAS COASTAL BEND, RIO GRANDE PLAINS DEEP SOUTH TEXAS

CITY           SKY/WX    TMP DP  RH WIND       PRES   REMARKS
VICTORIA       PTSUNNY   83  75  77 S24G32    29.91S
BEEVILLE       CLOUDY    80  77  92 S16G25    29.89S
ROCKPORT       CLOUDY    82  75  79 SE18G29   29.90R
PORT ARANSAS   NOT AVBL
PORT LAVACA    PTSUNNY   83  76  78 SE15G25   29.91F
CORPUS CHRISTI LGT RAIN  81  76  84 SE22G37   29.87S
KINGSVILLE NAS LGT RAIN  82  79  90 SE21G28   29.86F
COTULLA        CLOUDY    80  74  81 S9        29.85S
LAREDO         MOSUNNY   83  74  74 SE17      29.86F
BROWNSVILLE    CLOUDY    85  76  74 SE24G33   29.87S
PORT ISABEL    PTSUNNY   83  76  79 SE22G38   29.85F
HEBBRONVILLE   NOT AVBL
MCALLEN        PTSUNNY   88  76  67 SE21G29   29.84S
WESLACO        NOT AVBL
FALFURRIAS     CLOUDY    84  75  74 SE13G22   29.86S
EDINBURG       NOT AVBL
$$


USA.gov is the U.S. government's official web portal to all federal, state and local government web resources and services.